Temp: 20.4°C   Baro: 1034.8mb
  Wind: 2.9mph   Dir: WNW (294°)
  Rain: 0.0mm (0.0mm/hr)
  Solar: 814W/m2  Hum: 50%

10 day detailed forecast for Bath, United Kingdom

Last update: 25.05.2020 09:43
Next update: 25.05.2020 15:54
Latitude: 51.38° N
Longitude: 2.36° W
meteogram
    Temperature Precipitation Pressure Wind Humidity Clouds Fog
 04:04     20:08 Today
11:00   1035.1 mb 5 mph 41% 61%
12:00   1035.1 mb 6 mph 40% 49%
13:00   1035.1 mb 8 mph 40% 2%
14:00   1034.8 mb 7 mph 40% 0%
15:00   1034.6 mb 6 mph 40% 0%
16:00   1034.4 mb 7 mph 42% 3%
17:00   1034.2 mb 7 mph 45% 58%
18:00   1034.1 mb 8 mph 49% 73%
19:00   1034.5 mb 8 mph 56% 64%
20:00   1035.0 mb 8 mph 62% 27%
21:00   1035.4 mb 7 mph 67% 8%
22:00   1035.5 mb 6 mph 73% 19%
23:00   1035.6 mb 6 mph 77% 57%
 04:03     20:09 Tomorrow
00:00   1035.6 mb 5 mph 80% 2%
01:00   1035.8 mb 5 mph 83% 20%
02:00   1035.9 mb 5 mph 86% 61%
03:00   1035.9 mb 4 mph 87% 45%
04:00   1035.9 mb 4 mph 88% 41%
05:00   1036.2 mb 4 mph 83% 52%
06:00   1036.4 mb 5 mph 73% 56%
07:00   1036.6 mb 5 mph 65% 62%
08:00   1036.6 mb 6 mph 60% 100%
09:00   1036.6 mb 6 mph 54% 97%
10:00   1036.5 mb 6 mph 45% 99%
11:00   1036.6 mb 5 mph 43% 98%
12:00   1036.7 mb 6 mph 50% 66%
13:00   1036.5 mb 6 mph 55% 91%
14:00   1036.2 mb 6 mph 55% 83%
15:00   1035.8 mb 7 mph 55% 49%
16:00   1035.5 mb 9 mph 57% 66%
17:00   1035.4 mb 8 mph 61% 68%
18:00   1035.3 mb 7 mph 65% 74%
19:00   1035.3 mb 6 mph 71% 72%
20:00   1035.6 mb 4 mph 81% 74%
21:00   1035.8 mb 4 mph 89% 17%
22:00   1035.9 mb 3 mph 93% 20%
23:00   1036.0 mb 4 mph 93% 18%
 04:02     20:10 Wednesday 27.05.2020
00:00   1036.0 mb 5 mph 92% 7%
01:00   1036.1 mb 6 mph 91% 6%
02:00   1036.2 mb 7 mph 86% 26%
03:00   1036.3 mb 7 mph 80% 16%
04:00   1036.4 mb 6 mph 76% 11%
05:00   1036.5 mb 6 mph 74% 10%
06:00   1036.6 mb 5 mph 68% 6%
07:00   1036.6 mb 6 mph 60% 2%
08:00   1036.5 mb 6 mph 52% 1%
09:00   1036.5 mb 6 mph 48% 2%
10:00   1036.3 mb 6 mph 49% 2%
11:00   1036.0 mb 6 mph 48% 1%
12:00   1035.8 mb 6 mph 46% 9%
13:00   1035.4 mb 6 mph 42% 66%
14:00   1035.1 mb 7 mph 40% 60%
15:00   1034.7 mb 7 mph 40% 59%
16:00   1034.4 mb 6 mph 40% 20%
17:00   1034.0 mb 7 mph 39% 0%
18:00   1033.8 mb 8 mph 40% 0%
19:00   1033.9 mb 6 mph 46% 13%
20:00   1034.2 mb 6 mph 50% 8%
21:00   1034.6 mb 7 mph 51% 24%
22:00   1034.7 mb 6 mph 56% 52%
23:00   1034.7 mb 7 mph 58% 43%
 04:01     20:12 Thursday 28.05.2020
00:00   1034.7 mb 7 mph 64% 45%
06:00   1035.2 mb 7 mph 74% 52%
12:00   1033.1 mb 9 mph 42% 31%
18:00   1029.9 mb 10 mph 33% 0%
 04:00     20:13 Friday 29.05.2020
00:00   1030.3 mb 9 mph 51% 3%
06:00   1028.3 mb 8 mph 61% 5%
12:00   1025.5 mb 10 mph 34% 64%
18:00   1022.2 mb 7 mph 34% 63%
 03:59     20:14 Saturday 30.05.2020
00:00   1022.6 mb 7 mph 52% 98%
06:00   1022.1 mb 8 mph 57% 98%
12:00   1021.2 mb 8 mph 30% 98%
18:00   1018.7 mb 7 mph 34% 62%
 03:58     20:15 Sunday 31.05.2020
00:00   1020.1 mb 6 mph 65% 2%
06:00   1019.6 mb 7 mph 70% 2%
12:00   1018.6 mb 8 mph 37% 2%
18:00   1016.8 mb 9 mph 36% 24%
 03:58     20:16 Monday 01.06.2020
00:00   1019.5 mb 8 mph 51% 1%
06:00   1019.1 mb 6 mph 61% 28%
12:00   1017.9 mb 6 mph 34% 90%
18:00   1015.3 mb 3 mph 33% 2%
 03:57     20:17 Tuesday 02.06.2020
00:00   1014.8 mb 4 mph 67% 91%
06:00   1013.9 mb 4 mph 64% 100%
12:00 1.4 mm 1013.9 mb 1 mph 69% 100%
18:00 1.2 mm 1013.7 mb 5 mph 81% 100%
 03:56     20:18 Wednesday 03.06.2020
00:00 0.1 mm 1016.3 mb 11 mph 51% 30%
06:00   1018.7 mb 12 mph 81% 35%
12:00   1018.8 mb 13 mph 42% 57%
18:00   1018.6 mb 12 mph 44% 71%